FW7644 Weather Reports


time (UTC)temp
C
wind
direction
speed
KPH
gust
KPH
rain 1hr
cm
rain 24hr
cm
rain mn
cm
humidity
%
barometer
mb
20260902184745 19 0.0 0.0 0.00 0.00 0.00 63 1021.1
20260902184244 20 0.0 0.0 0.00 0.00 0.00 60 1021.1
20260902183742 20 0.0 0.0 0.00 0.00 0.00 57 1021.0
20260902183241 21 0.0 0.0 0.00 0.00 0.00 58 1021.1
20260902182739 20 0.0 0.0 0.00 0.00 0.00 58 1021.1
20260902182237 20 0.0 0.0 0.00 0.00 0.00 59 1021.1
20260902181735 21 0.0 0.0 0.00 0.00 0.00 57 1021.1
20260902181234 21 0.0 0.0 0.00 0.00 0.00 55 1021.1
20260902180732 22 0.0 0.0 0.00 0.00 0.00 53 1021.1
20260902180230 22 0.0 0.0 0.00 0.00 0.00 52 1021.2
20260902175728 21 0.0 0.0 0.00 0.00 0.00 54 1021.2
20260902175226 21 0.0 0.0 0.00 0.00 0.00 54 1021.3
20260902174725 21 0.0 0.0 0.00 0.00 0.00 53 1021.4
20260902174223 22 0.0 0.0 0.00 0.00 0.00 52 1021.5
20260902173721 22 0.0 0.0 0.00 0.00 0.00 53 1021.6
20260902173219 22 0.0 0.0 0.00 0.00 0.00 52 1021.6
20260902172718 23 0.0 0.0 0.00 0.00 0.00 49 1021.7
20260902172216 21 0.0 0.0 0.00 0.00 0.00 54 1021.8
20260902171714 21 0.0 0.0 0.00 0.00 0.00 53 1021.8
20260902171212 22 0.0 0.0 0.00 0.00 0.00 52 1021.8
20260902170710 21 0.0 0.0 0.00 0.00 0.00 55 1021.8
20260902170208 21 0.0 0.0 0.00 0.00 0.00 52 1021.8
20260902165706 21 0.0 0.0 0.00 0.00 0.00 52 1021.9
20260902165204 22 0.0 0.0 0.00 0.00 0.00 51 1022.0
20260902164703 21 0.0 0.0 0.00 0.00 0.00 51 1022.0
20260902164201 21 0.0 0.0 0.00 0.00 0.00 54 1022.1
20260902163659 20 0.0 0.0 0.00 0.00 0.00 56 1022.2
20260902163157 20 0.0 0.0 0.00 0.00 0.00 60 1022.2
20260902162655 20 0.0 0.0 0.00 0.00 0.00 58 1022.3
20260902162154 20 0.0 0.0 0.00 0.00 0.00 58 1022.4
20260902161652 20 0.0 0.0 0.00 0.00 0.00 56 1022.3
20260902161150 22 0.0 0.0 0.00 0.00 0.00 52 1022.3
20260902160648 20 0.0 0.0 0.00 0.00 0.00 59 1022.2
20260902160147 18 0.0 0.0 0.00 0.00 0.00 62 1022.2
20260902155645 18 0.0 0.0 0.00 0.00 0.00 62 1022.2
20260902155143 19 0.0 0.0 0.00 0.00 0.00 61 1022.2
20260902154642 19 0.0 0.0 0.00 0.00 0.00 60 1022.2
20260902154140 20 0.0 0.0 0.00 0.00 0.00 57 1022.3
20260902153638 21 0.0 0.0 0.00 0.00 0.00 55 1022.3
20260902153136 19 0.0 0.0 0.00 0.00 0.00 57 1022.3
20260902152635 18 0.0 0.0 0.00 0.00 0.00 61 1022.4
20260902152133 20 0.0 0.0 0.00 0.00 0.00 56 1022.4
20260902151631 21 0.0 0.0 0.00 0.00 0.00 51 1022.4
20260902151129 21 0.0 0.0 0.00 0.00 0.00 50 1022.4
20260902150628 21 0.0 0.0 0.00 0.00 0.00 51 1022.5
20260902150126 21 0.0 0.0 0.00 0.00 0.00 53 1022.5
20260902145624 18 0.0 0.0 0.00 0.00 0.00 58 1022.5
20260902145123 17 0.0 0.0 0.00 0.00 0.00 58 1022.5
20260902144621 19 0.0 0.0 0.00 0.00 0.00 56 1022.6
20260902144119 18 0.0 0.0 0.00 0.00 0.00 58 1022.5
20260902143617 20 0.0 0.0 0.00 0.00 0.00 55 1022.6
20260902143116 21 0.0 0.0 0.00 0.00 0.00 53 1022.5
20260902142615 21 0.0 0.0 0.00 0.00 0.00 53 1022.5
20260902142113 20 0.0 0.0 0.00 0.00 0.00 57 1022.6
20260902141611 20 0.0 0.0 0.00 0.00 0.00 59 1022.6
20260902141109 19 0.0 0.0 0.00 0.00 0.00 61 1022.6
20260902140608 19 0.0 0.0 0.00 0.00 0.00 58 1022.6
20260902140106 20 0.0 0.0 0.00 0.00 0.00 57 1022.7
20260902135604 21 0.0 0.0 0.00 0.00 0.00 55 1022.7
20260902135102 19 0.0 0.0 0.00 0.00 0.00 61 1022.7
20260902134601 18 0.0 0.0 0.00 0.00 0.00 63 1022.8
20260902134059 18 0.0 0.0 0.00 0.00 0.00 65 1022.8
20260902133557 20 0.0 0.0 0.00 0.00 0.00 58 1022.9
20260902133055 20 0.0 0.0 0.00 0.00 0.00 52 1022.9
20260902132554 21 0.0 0.0 0.00 0.00 0.00 55 1022.9
20260902132052 19 0.0 0.0 0.00 0.00 0.00 61 1022.9
20260902131550 17 0.0 0.0 0.00 0.00 0.00 66 1022.9
20260902131048 18 0.0 0.0 0.00 0.00 0.00 63 1022.8
20260902130547 16 0.0 0.0 0.00 0.00 0.00 70 1022.8
20260902130045 16 0.0 0.0 0.00 0.00 0.00 73 1022.8
20260902125543 16 0.0 0.0 0.00 0.03 0.00 73 1022.7
20260902125041 16 0.0 0.0 0.00 0.03 0.00 71 1022.7
20260902124539 17 0.0 0.0 0.00 0.03 0.00 68 1022.7
20260902124036 18 0.0 0.0 0.00 0.03 0.00 64 1022.6
20260902123534 18 0.0 0.0 0.00 0.03 0.00 65 1022.5
20260902123031 17 0.0 0.0 0.00 0.03 0.00 67 1022.5
20260902122530 18 0.0 0.0 0.00 0.03 0.00 68 1022.4
20260902122028 17 0.0 0.0 0.00 0.03 0.00 69 1022.4
20260902121526 18 0.0 0.0 0.00 0.03 0.00 67 1022.4
20260902121024 18 0.0 0.0 0.00 0.03 0.00 68 1022.4
20260902120522 17 0.0 0.0 0.00 0.03 0.00 72 1022.4
20260902120019 16 0.0 0.0 0.00 0.03 0.00 73 1022.4
20260902115518 17 0.0 0.0 0.00 0.03 0.00 72 1022.3
20260902115016 14 0.0 0.0 0.00 0.03 0.00 86 1022.3
20260902114514 13 0.0 0.0 0.00 0.03 0.00 85 1022.2
20260902114012 15 0.0 0.0 0.00 0.03 0.00 79 1022.2
20260902113510 15 0.0 0.0 0.00 0.03 0.00 81 1022.2
20260902113008 15 0.0 0.0 0.00 0.03 0.00 78 1022.2
20260902112507 16 0.0 0.0 0.00 0.03 0.00 80 1022.2
20260902112005 14 0.0 0.0 0.00 0.03 0.00 89 1022.2
20260902111503 13 0.0 0.0 0.00 0.03 0.00 91 1022.2
20260902111002 13 0.0 0.0 0.00 0.03 0.00 88 1022.1
20260902110500 13 0.0 0.0 0.00 0.03 0.00 90 1022.1
20260902105958 13 0.0 0.0 0.00 0.03 0.00 94 1022.1
20260902105456 13 0.0 0.0 0.00 0.03 0.00 94 1022.1
20260902104955 13 0.0 0.0 0.00 0.03 0.00 95 1022.0
20260902104453 12 0.0 0.0 0.00 0.03 0.00 97 1021.9
20260902103952 12 0.0 0.0 0.00 0.03 0.00 98 1021.8
20260902103450 12 0.0 0.0 0.00 0.03 0.00 99 1021.8
20260902102948 12 0.0 0.0 0.00 0.03 0.00 99 1021.8
20260902102446 12 0.0 0.0 0.00 0.03 0.00 99 1021.8
20260902101944 12 0.0 0.0 0.00 0.03 0.00 99 1021.7
20260902101443 12 0.0 0.0 0.00 0.03 0.00 99 1021.5
20260902100941 12 0.0 0.0 0.00 0.03 0.00 99 1021.5
20260902100439 12 0.0 0.0 0.00 0.03 0.00 99 1021.5
20260902095937 12 0.0 0.0 0.00 0.03 0.00 99 1021.4
20260902095436 12 0.0 0.0 0.00 0.03 0.00 99 1021.3
20260902094934 12 0.0 0.0 0.00 0.03 0.00 99 1021.2
20260902094432 12 0.0 0.0 0.00 0.03 0.00 99 1021.2
20260902093930 11 0.0 0.0 0.00 0.03 0.00 99 1021.1
20260902093428 11 0.0 0.0 0.00 0.03 0.00 99 1021.0
20260902092926 11 0.0 0.0 0.00 0.03 0.00 99 1020.9
20260902092425 11 0.0 0.0 0.00 0.03 0.00 99 1020.8
20260902091923 11 0.0 0.0 0.00 0.03 0.00 99 1020.7
20260902091422 11 0.0 0.0 0.00 0.03 0.00 99 1020.7
20260902090920 11 0.0 0.0 0.00 0.03 0.00 99 1020.5
20260902090418 11 0.0 0.0 0.00 0.03 0.00 99 1020.4
20260902085916 11 0.0 0.0 0.00 0.03 0.00 99 1020.4
20260902085414 11 0.0 0.0 0.00 0.03 0.00 99 1020.3
20260902084913 11 0.0 0.0 0.00 0.03 0.00 99 1020.3
20260902084411 11 0.0 0.0 0.00 0.03 0.00 99 1020.2
20260902083910 12 0.0 0.0 0.00 0.03 0.00 99 1020.3
20260902083408 12 0.0 0.0 0.00 0.03 0.00 99 1020.3
20260902082906 12 0.0 0.0 0.00 0.03 0.00 99 1020.3
20260902082405 12 0.0 0.0 0.00 0.03 0.00 99 1020.2
20260902081903 12 0.0 0.0 0.00 0.03 0.00 99 1020.2
20260902081401 12 0.0 0.0 0.00 0.03 0.00 99 1020.0
20260902080859 12 0.0 0.0 0.00 0.03 0.00 99 1020.1
20260902080358 12 0.0 0.0 0.00 0.03 0.00 99 1020.1
20260902075856 12 0.0 0.0 0.00 0.03 0.00 99 1020.1
20260902075354 12 0.0 0.0 0.00 0.03 0.00 99 1020.1
20260902074853 12 0.0 0.0 0.00 0.03 0.00 99 1020.0
20260902074351 12 0.0 0.0 0.00 0.03 0.00 99 1020.1
20260902073850 12 0.0 0.0 0.00 0.03 0.00 99 1020.1
20260902073348 12 0.0 0.0 0.00 0.03 0.00 99 1020.1
20260902072846 12 0.0 0.0 0.00 0.03 0.00 99 1020.0
20260902072344 12 0.0 0.0 0.00 0.03 0.00 99 1020.0
20260902071843 12 0.0 0.0 0.00 0.03 0.00 99 1020.0
20260902071342 12 0.0 0.0 0.00 0.03 0.00 99 1020.0
20260902070840 11 0.0 0.0 0.00 0.03 0.00 99 1019.9
20260902070339 11 0.0 0.0 0.00 0.03 0.00 99 1019.9
20260902065837 12 0.0 0.0 0.00 0.03 0.00 99 1020.0
20260902065336 12 0.0 0.0 0.00 0.03 0.00 99 1019.9
20260902064834 12 0.0 0.0 0.00 0.03 0.00 99 1020.0
20260902064332 12 0.0 0.0 0.00 0.03 0.00 99 1020.0
20260902063830 12 0.0 0.0 0.00 0.03 0.00 99 1020.0
20260902063329 13 0.0 0.0 0.00 0.03 0.00 99 1020.1
20260902062827 13 0.0 0.0 0.00 0.03 0.00 99 1020.1
20260902062326 13 0.0 0.0 0.00 0.03 0.00 99 1020.2
20260902061824 12 0.0 0.0 0.00 0.03 0.00 99 1020.2
20260902061322 12 0.0 0.0 0.00 0.03 0.00 99 1020.2
20260902060820 12 0.0 0.0 0.00 0.03 0.00 99 1020.3
20260902060319 12 0.0 0.0 0.00 0.03 0.00 99 1020.3
20260902055817 12 0.0 0.0 0.00 0.03 0.00 99 1020.2
20260902055315 12 0.0 0.0 0.00 0.03 0.00 99 1020.2
20260902054814 12 0.0 0.0 0.00 0.03 0.00 99 1020.3
20260902054313 12 0.0 0.0 0.00 0.03 0.00 99 1020.3
20260902053811 12 0.0 0.0 0.00 0.03 0.00 99 1020.3
20260902053309 12 0.0 0.0 0.00 0.03 0.00 98 1020.4
20260902052808 13 0.0 0.0 0.00 0.03 0.00 98 1020.4
20260902052307 13 0.0 0.0 0.00 0.03 0.00 98 1020.4
20260902051805 13 0.0 0.0 0.00 0.03 0.00 97 1020.5
20260902051303 13 0.0 0.0 0.00 0.03 0.00 97 1020.5
20260902050802 13 0.0 0.0 0.00 0.03 0.00 98 1020.5
20260902050300 13 0.0 0.0 0.00 0.03 0.00 98 1020.5
20260902045758 13 0.0 0.0 0.00 0.05 0.00 98 1020.5
20260902045257 13 0.0 0.0 0.00 0.05 0.00 98 1020.5
20260902044755 13 0.0 0.0 0.00 0.05 0.00 98 1020.5
20260902044253 13 0.0 0.0 0.00 0.05 0.00 99 1020.5
20260902043752 13 0.0 0.0 0.00 0.05 0.00 99 1020.4
20260902043250 13 0.0 0.0 0.00 0.05 0.00 99 1020.4
20260902042748 13 0.0 0.0 0.00 0.05 0.00 99 1020.4
20260902042247 13 0.0 0.0 0.00 0.05 0.00 99 1020.4
20260902041745 13 0.0 0.0 0.00 0.05 0.00 99 1020.5
20260902041244 13 0.0 0.0 0.00 0.05 0.00 99 1020.5
20260902040742 13 0.0 0.0 0.00 0.05 0.00 99 1020.6
20260902040241 13 0.0 0.0 0.00 0.05 0.00 99 1020.6
20260902035739 13 0.0 0.0 0.00 0.41 0.00 99 1020.6
20260902035237 13 0.0 0.0 0.00 0.41 0.00 99 1020.6
20260902034736 13 0.0 0.0 0.00 0.41 0.00 99 1020.6
20260902034234 13 0.0 0.0 0.00 0.41 0.00 99 1020.6
20260902033732 13 0.0 0.0 0.00 0.41 0.00 99 1020.6
20260902033230 13 0.0 0.0 0.00 0.41 0.00 99 1020.6
20260902032729 13 0.0 0.0 0.00 0.41 0.00 99 1020.6
20260902032227 13 0.0 0.0 0.00 0.41 0.00 99 1020.6
20260902031726 13 0.0 0.0 0.00 0.41 0.00 99 1020.6
20260902031224 13 0.0 0.0 0.00 0.41 0.00 99 1020.6
20260902030723 13 0.0 0.0 0.00 0.41 0.00 99 1020.6
20260902030221 13 0.0 0.0 0.00 0.41 0.00 99 1020.6
20260902025218 13 0.0 0.0 0.00 1.17 0.41 99 1020.4
20260902024716 13 0.0 0.0 0.00 1.17 0.41 99 1020.4
20260902024214 13 0.0 0.0 0.00 1.17 0.41 99 1020.3
20260902023713 13 0.0 0.0 0.00 1.17 0.41 99 1020.3
20260902023211 13 0.0 0.0 0.00 1.17 0.41 99 1020.3
20260902022709 13 0.0 0.0 0.00 1.17 0.41 99 1020.3
20260902022208 13 0.0 0.0 0.00 1.17 0.41 99 1020.3
20260902021706 13 0.0 0.0 0.00 1.17 0.41 99 1020.3
20260902021205 13 0.0 0.0 0.00 1.17 0.41 99 1020.2
20260902020703 13 0.0 0.0 0.00 1.17 0.41 99 1020.2
20260902020202 13 0.0 0.0 0.00 1.17 0.41 99 1020.2
20260902015700 13 0.0 0.0 0.00 1.75 0.41 99 1020.2
20260902015158 13 0.0 0.0 0.00 1.75 0.41 99 1020.2
20260902014657 13 0.0 0.0 0.00 1.75 0.41 99 1020.2
20260902014155 12 0.0 0.0 0.00 1.75 0.41 99 1020.1
20260902013653 12 0.0 0.0 0.00 1.75 0.41 99 1020.1
20260902013152 12 0.0 0.0 0.00 1.75 0.41 99 1020.0
20260902012650 12 0.0 0.0 0.00 1.75 0.41 99 1019.9
20260902012149 12 0.0 0.0 0.00 1.75 0.41 99 1019.9
20260902011647 12 0.0 0.0 0.00 1.75 0.41 99 1019.8
20260902011145 12 0.0 0.0 0.00 1.75 0.41 99 1019.8
20260902010643 12 0.0 0.0 0.00 1.75 0.41 99 1019.8
20260902010141 12 0.0 0.0 0.00 1.75 0.41 99 1019.6
20260902005639 12 0.0 0.0 0.00 1.83 0.41 99 1019.5
20260902004636 12 0.0 0.0 0.00 1.83 0.41 99 1019.3
20260902004134 12 0.0 0.0 0.00 1.83 0.41 99 1019.3
20260902003632 13 0.0 0.0 0.00 1.83 0.41 99 1019.2
20260902003127 13 0.0 0.0 0.00 1.83 0.41 99 1019.1
20260902002625 13 0.0 0.0 0.00 1.83 0.41 99 1019.0
20260902002122 13 0.0 0.0 0.00 1.83 0.41 99 1018.9
20260902001620 13 0.0 0.0 0.00 1.83 0.41 98 1018.9
20260902001118 13 0.0 0.0 0.00 1.83 0.41 98 1018.9
20260902000616 13 0.0 0.0 0.00 1.83 0.41 98 1018.8
20260902000114 13 0.0 0.0 0.00 1.83 0.41 98 1018.7
20260901235611 13 0.0 0.0 0.00 2.08 0.41 97 1018.6
20260901235109 13 0.0 0.0 0.00 2.08 0.41 97 1018.6
20260901234105 13 0.0 0.0 0.00 2.08 0.41 95 1018.5
20260901233603 13 0.0 0.0 0.00 2.08 0.41 94 1018.4
20260901233101 13 0.0 0.0 0.00 2.08 0.41 94 1018.3
20260901232559 13 0.0 0.0 0.00 2.08 0.41 93 1018.1
20260901232058 14 0.0 0.0 0.00 2.08 0.41 93 1017.9
20260901231556 14 0.0 0.0 0.00 2.08 0.41 92 1017.9
20260901231055 14 0.0 0.0 0.00 2.08 0.41 91 1017.8
20260901230554 15 0.0 0.0 0.00 2.08 0.41 90 1017.8
20260901230052 15 0.0 0.0 0.00 2.08 0.41 89 1017.6
20260901225550 15 0.0 0.0 0.00 2.77 0.41 88 1017.4
20260901225049 15 0.0 0.0 0.00 2.77 0.41 88 1017.4
20260901224548 15 0.0 0.0 0.00 2.77 0.41 88 1017.3
20260901224046 15 0.0 0.0 0.00 2.77 0.41 88 1017.3
20260901223544 15 0.0 0.0 0.00 2.77 0.41 87 1017.2
20260901223043 15 0.0 0.0 0.00 2.77 0.41 86 1017.1
20260901222541 16 0.0 0.0 0.00 2.77 0.41 86 1017.0
20260901222039 16 0.0 0.0 0.00 2.77 0.41 84 1016.9
20260901221538 16 0.0 0.0 0.00 2.77 0.41 83 1016.9
20260901221036 16 0.0 0.0 0.00 2.77 0.41 83 1016.8
20260901220535 16 0.0 0.0 0.00 2.77 0.41 81 1016.6
20260901220033 16 0.0 0.0 0.00 2.77 0.41 81 1016.5
20260901215531 16 0.0 0.0 0.00 2.77 0.41 80 1016.4
20260901215030 16 0.0 0.0 0.00 2.77 0.41 79 1016.3
20260901214528 16 0.0 0.0 0.00 2.77 0.41 78 1016.3
20260901214026 16 0.0 0.0 0.00 2.77 0.41 75 1016.3
20260901213525 17 0.0 0.0 0.00 2.77 0.41 74 1016.2
20260901213023 17 0.0 0.0 0.00 2.77 0.41 72 1016.2
20260901212521 17 0.0 0.0 0.00 2.77 0.41 70 1016.2
20260901212020 17 0.0 0.0 0.00 2.77 0.41 69 1016.2
20260901211518 18 0.0 0.0 0.00 2.77 0.41 67 1016.1
20260901211016 18 0.0 0.0 0.00 2.77 0.41 66 1016.1
20260901210515 18 0.0 0.0 0.00 2.77 0.41 65 1016.1
20260901210013 18 0.0 0.0 0.00 2.77 0.41 64 1016.0
20260901205511 18 0.0 0.0 0.00 2.77 0.41 62 1015.9
20260901205009 18 0.0 0.0 0.00 2.77 0.41 62 1015.8
20260901204508 19 0.0 0.0 0.00 2.77 0.41 61 1015.6
20260901204006 20 0.0 0.0 0.00 2.77 0.41 60 1015.6
20260901203504 20 0.0 0.0 0.00 2.77 0.41 59 1015.6
20260901203002 21 0.0 0.0 0.00 2.77 0.41 56 1015.5
20260901202500 20 0.0 0.0 0.00 2.77 0.41 57 1015.4
20260901201959 21 0.0 0.0 0.00 2.77 0.41 54 1015.4
20260901201457 21 0.0 0.0 0.00 2.77 0.41 54 1015.4
20260901200955 21 0.0 0.0 0.00 2.77 0.41 53 1015.3
20260901200453 22 0.0 0.0 0.00 2.77 0.41 51 1015.2
20260901195951 21 0.0 0.0 0.00 2.79 0.41 52 1015.1
20260901195449 21 0.0 0.0 0.00 2.79 0.41 54 1015.1
20260901194947 22 0.0 0.0 0.00 2.79 0.41 52 1014.9
20260901194445 21 0.0 0.0 0.00 2.79 0.41 55 1014.7
20260901193943 20 0.0 0.0 0.00 2.79 0.41 56 1014.7
20260901193441 21 0.0 0.0 0.00 2.79 0.41 56 1014.7
20260901192939 21 0.0 0.0 0.00 2.79 0.41 52 1014.6
20260901192437 22 0.0 0.0 0.00 2.79 0.41 49 1014.6
20260901191936 23 0.0 0.0 0.00 2.79 0.41 49 1014.5
20260901191434 23 0.0 0.0 0.00 2.79 0.41 49 1014.4
20260901190932 23 0.0 0.0 0.00 2.79 0.41 49 1014.4
20260901190430 22 0.0 0.0 0.00 2.79 0.41 53 1014.3
20260901185928 21 0.0 0.0 0.00 2.90 0.41 54 1014.3
20260901185427 21 0.0 0.0 0.00 2.90 0.41 54 1014.4